Home   Weather   Shymkent   Past weeks

Flag for Kazakhstan Past Weather in Shymkent, Kazakhstan — Yesterday and Last 2 Weeks

Now
59 °F

Sprinkles. Mostly cloudy.


Feels Like: 58 °F
Forecast: 43 / 58 °F
Wind: 8 mph from South

Location: Shymkent Airport

Current Time: Dec 3, 2016 at 5:47:17 pm

Latest Report: Dec 3, 2016 at 5:00 pm


Visibility: N/A

Pressure: 29.92 "Hg (28.18 "Hg at 506m altitude)

Humidity: 63%

Dew Point: 46 °F

Location of ShymkentLocation

Past Weather in Shymkent — Graph

°F

Shymkent Temperature Yesterday

Maximum temperature yesterday: 55 °F (at 10:30 am)
Minimum temperature yesterday: 39 °F (at 12:30 am)
Average temperature yesterday: 47 °F

High & Low Weather Summary for the Past Weeks

 TemperatureHumidityPressure
High64 °F (Dec 3, 10:00 am)100% (Nov 19, 3:00 pm)30.74 "Hg (Nov 19, 3:00 pm)
Low7 °F (Nov 27, 1:30 am)24% (Nov 30, 3:30 pm)29.89 "Hg (Dec 3, 6:00 am)
Average28 °F77%30.39 "Hg
* Reported Nov 18 4:00 pm — Dec 3 4:30 pm, Shymkent, Weather by CustomWeather, © 2016

Note: Actual official high and low records may vary slightly from our data, if they occured in-between our weather recording intervals... More about our weather records

Advertising

Shymkent Weather History for the Previous 24 Hours

Scroll right to see more
 ConditionsComfort  
Time TempWeatherWind HumidityBarometerVisibility
4:30 pm
Sat, Dec 3
59 °FSprinkles. Mostly cloudy.8 mph59%29.95 "HgN/A
4:00 pm57 °FSprinkles. Mostly cloudy.6 mph67%29.95 "HgN/A
3:30 pm57 °FSprinkles. Mostly cloudy.8 mph67%29.95 "HgN/A
3:00 pm57 °FSprinkles. Mostly cloudy.6 mph67%29.95 "HgN/A
2:30 pm57 °FMore clouds than sun.3 mph55%29.95 "HgN/A
2:00 pm55 °FMore clouds than sun.No wind59%29.95 "HgN/A
1:30 pm55 °FMore clouds than sun.1 mph51%29.95 "HgN/A
1:00 pm54 °FMore clouds than sun.No wind51%29.95 "HgN/A
12:30 pm54 °FMore clouds than sun.8 mph47%29.98 "HgN/A
12:00 pm54 °FMore clouds than sun.13 mph51%29.95 "HgN/A
11:30 am63 °FMostly cloudy.15 mph45%29.92 "HgN/A
11:00 am64 °FSprinkles. Mostly cloudy.6 mph43%29.89 "HgN/A
10:30 am64 °FSprinkles. Mostly cloudy.6 mph43%29.89 "HgN/A
10:00 am64 °FMore clouds than sun.6 mph37%29.89 "HgN/A
9:30 am61 °FMore clouds than sun.8 mph45%29.89 "HgN/A
9:00 am54 °FMore clouds than sun.1 mph54%29.89 "HgN/A
8:30 am54 °FMostly cloudy.6 mph51%29.92 "HgN/A
8:00 am52 °FMostly cloudy.3 mph54%29.92 "HgN/A
7:30 am52 °FMostly cloudy.6 mph54%29.92 "Hg5 mi
7:00 am50 °FMostly cloudy.8 mph58%29.89 "Hg5 mi
6:30 am52 °FMostly cloudy.6 mph50%29.89 "Hg5 mi
6:00 am50 °FMostly cloudy.8 mph58%29.89 "Hg5 mi
5:30 am48 °FMostly cloudy.8 mph62%29.92 "Hg4 mi
5:00 am48 °FMostly cloudy.8 mph58%29.92 "Hg4 mi
4:30 am48 °FMostly cloudy.8 mph58%29.92 "Hg4 mi
4:00 am48 °FMostly cloudy.8 mph58%29.95 "Hg4 mi
3:30 am48 °FMostly cloudy.6 mph62%29.95 "Hg4 mi
3:00 am48 °FMostly cloudy.10 mph58%29.98 "Hg4 mi
2:30 am46 °FMostly cloudy.6 mph62%29.98 "Hg4 mi
2:00 am45 °FMostly cloudy.6 mph66%29.98 "Hg4 mi
1:30 am46 °FMostly cloudy.6 mph62%30.01 "Hg4 mi
1:00 am45 °FMostly cloudy.6 mph66%30.01 "Hg4 mi
12:30 am45 °FMostly cloudy.6 mph66%30.01 "Hg4 mi
12:00 am45 °FMostly cloudy.8 mph66%30.01 "Hg4 mi
11:30 pm
Fri, Dec 2
43 °FMostly cloudy.3 mph71%30.01 "Hg4 mi
11:00 pm46 °FMostly cloudy.8 mph62%30.01 "Hg2 mi
10:30 pm46 °FMostly cloudy.3 mph62%30.04 "Hg2 mi
10:00 pm46 °FMostly cloudy.8 mph66%30.04 "Hg2 mi
9:30 pm46 °FMostly cloudy.6 mph66%30.04 "Hg2 mi
9:00 pm48 °FMostly cloudy.8 mph58%30.04 "Hg3 mi
8:30 pm50 °FMostly cloudy.6 mph62%30.04 "Hg2 mi
8:00 pm48 °FMostly cloudy.8 mph62%30.04 "Hg1 mi
7:30 pm50 °FMostly cloudy.6 mph58%30.04 "Hg1 mi
7:00 pm50 °FMostly cloudy.6 mph58%30.07 "Hg1 mi
6:30 pm48 °FMostly cloudy.6 mph66%30.07 "Hg1 mi
6:00 pm48 °FFog.3 mph71%30.07 "Hg2 mi
5:30 pm48 °FMore clouds than sun.1 mph71%30.09 "Hg5 mi
5:00 pm50 °FSunny.1 mph67%30.09 "Hg10 mi
Weather by CustomWeather, © 2016

See weather overviewHow to use our weather pages